Flag for Syria Weather past 2 weeks in Damascus, Syria

Now
50 °F

Clear.


Feels Like: 46 °F
Forecast: 42 / 73 °F
Wind: 12 mph from Southwest

Location: Damascus Int. Airport

Current Time: Apr 2, 2015 at 3:35:40 AM

Latest Report: Apr 2, 2015 at 3:00 AM


Visibility: 10 mi

Pressure: 29.98 "Hg

Humidity: 88%

Dew point: 46 °F

Location of DamascusLocation

Historic Weather in Damascus — Graph

°F

Damascus temperature yesterday

Maximum temperature yesterday: 70 °F (at 4:00 PM)
Minimum temperature yesterday: 48 °F (at 4:00 AM)
Average temperature yesterday: 57 °F

Past Weeks' High & Low Weather Summary

 TemperatureHumidityPressure
High79 °F (Mar 27, 4:00 PM)94% (Mar 29, 5:00 AM)30.18 "Hg (Mar 29, 5:00 AM)
Low30 °F (Mar 23, 6:00 AM)17% (Mar 25, 4:00 PM)29.77 "Hg (Mar 29, 4:00 PM)
Average56 °F54%29.99 "Hg
* Reported Mar 18 1:00 AM — Apr 2 2:00 AM, Damascus, Weather by CustomWeather, © 2015

Note: Actual official high and low records may vary slightly from our data, if they occured in-between our weather recording intervals... More about our weather records

Advertising

Damascus weather history for previous 24 hours

 ConditionsComfort  
Time TempWeatherWind HumidityBarometerVisibility
2:00 AM
Thu, Apr 2
50 °FClear.9 mph82%30.01 "Hg10 mi
1:00 AM50 °FClear.14 mph88%30.01 "Hg10 mi
12:00 AM52 °FClear.16 mph82%30.01 "Hg10 mi
11:00 PM
Wed, Apr 1
54 °FClear.16 mph77%30.01 "Hg10 mi
10:00 PM55 °FClear.14 mph67%30.01 "Hg10 mi
9:00 PM55 °FClear.18 mph72%29.98 "Hg10 mi
8:00 PM57 °FClear.18 mph67%29.95 "Hg10 mi
7:00 PM61 °FScattered clouds.18 mph59%29.95 "HgN/A
6:00 PM64 °FScattered clouds.25 mph49%29.92 "HgN/A
5:00 PM68 °FScattered clouds.12 mph35%29.92 "HgN/A
4:00 PM70 °FScattered clouds.14 mph33%29.92 "HgN/A
3:00 PM68 °FScattered clouds.12 mph35%29.92 "HgN/A
2:00 PM68 °FScattered clouds.12 mph35%29.92 "HgN/A
1:00 PM64 °FScattered clouds.7 mph40%29.92 "HgN/A
12:00 PM61 °FBroken clouds.9 mph55%29.95 "HgN/A
11:00 AM61 °FScattered clouds.12 mph59%29.95 "HgN/A
10:00 AM55 °FScattered clouds.12 mph67%29.95 "HgN/A
9:00 AM54 °FScattered clouds.9 mph77%29.92 "HgN/A
8:00 AM52 °FScattered clouds.5 mph82%29.89 "HgN/A
7:00 AM48 °FPassing clouds.2 mph87%29.89 "HgN/A
6:00 AM48 °FPassing clouds.5 mph82%29.86 "HgN/A
5:00 AM48 °FClear.5 mph82%29.86 "Hg10 mi
4:00 AM48 °FPassing clouds.5 mph87%29.86 "HgN/A
3:00 AM50 °FLight rain. Passing clouds.5 mph88%29.86 "Hg4 mi
Weather by CustomWeather, © 2015

See weather overviewHow to use our weather pages